Location: Unspecified
(0.0000°N, 0.0000°E)
Time: 15:29:05
(UTC+00:00)

Hubble Space Telescope - Pass Details

Date: 03 August 2020
Orbit: 536 x 540 km, 28.5° (Epoch: 08 August)

Event Time Altitude Azimuth Distance (km) Brightness Sun altitude
Exits shadow 05:23:40 - 287° (WNW) 1,861 3.0 -10.1°
Reaches altitude 10° 05:23:58 10° 290° (WNW) 1,781 2.9 -10.1°
Maximum altitude 05:26:43 17° 332° (NNW) 1,384 2.8 -9.4°
Drops below altitude 10° 05:29:28 10° 14° (NNE) 1,778 3.9 -8.8°
Sets 05:32:21 0° 34° (NE) 2,667 5.2 -8.1°
